Jackson, KY

4:23 PM EDT on August 26, 2016 (GMT -0400)
Carroll

Weather History for KJKL - May, 2012

Change the Weather History Date:

Thursday, May 17, 2012

  Actual Average Record
Temperature  
Mean Temperature 66 °F 65 °F  
Max Temperature 76 °F 75 °F 87 °F (1986)
Min Temperature 55 °F 55 °F 35 °F (1983)
Degree Days  
Heating Degree Days 0 3  
Month to date heating degree days 25 69  
Since 1 July heating degree days 3326 4190  
Cooling Degree Days 1 3  
Month to date cooling degree days 56 40  
Year to date cooling degree days 146 86  
Growing Degree Days 15 (Base 50)    
Moisture  
Dew Point 54 °F    
Average Humidity 71    
Maximum Humidity 87    
Minimum Humidity 54    
Precipitation  
Precipitation 0.00 in 0.18 in 1.45 in (1995)
Month to date precipitation 3.79 2.79  
Year to date precipitation 19.29 18.10  
Snow  
Snow 0.00 in 0.00 in - ()
Month to date snowfall 0.0 0.0  
Since 1 July snowfall 14.2 23.5  
Snow Depth 0.00 in    
Sea Level Pressure  
Sea Level Pressure 30.03 in    
Wind  
Wind Speed 1 mph (East)    
Max Wind Speed 6 mph    
Max Gust Speed 12 mph    
Visibility 10 miles    
Events      
T = Trace of Precipitation, MM = Missing Value Source: NWS Daily Summary

Daily Weather History Graph

Daily Weather History Graph

Search for Another Location

Airport or City:

Trip Planner

Search our weather history database for the weather conditions in past years. The results will help you decide how hot, cold, wet, or windy it might be!

Date:

Astronomy

May. 17, 2012 Rise Set
Actual Time 6:21 AM EDT 8:37 PM EDT
Civil Twilight 5:52 AM EDT 9:07 PM EDT
Nautical Twilight 5:16 AM EDT 9:43 PM EDT
Astronomical Twilight 4:36 AM EDT 10:23 PM EDT
Moon 4:16 AM EDT (5/17) 5:51 PM EDT (5/17)
Length of Visible Light 15h 15m
Length of Day
14h 16m
Waning Crescent, 10% of the Moon is Illuminated
May 17
Waning Crescent
May 20
New
May 28
First Quarter
Jun 4
Full
Jun 11
Last Quarter

Hourly Weather History & Observations

Time (EDT) Temp. Dew Point Humidity Pressure Visibility Wind Dir Wind Speed Gust Speed Precip Events Conditions
12:53 AM 62.1 °F 53.1 °F 72% 29.99 in 10.0 mi Calm Calm - N/A   Clear
1:53 AM 62.1 °F 55.0 °F 78% 29.98 in 10.0 mi Calm Calm - N/A   Clear
2:53 AM 61.0 °F 55.0 °F 81% 29.98 in 10.0 mi Calm Calm - N/A   Scattered Clouds
3:53 AM 61.0 °F 55.9 °F 83% 29.98 in 10.0 mi Variable 3.5 mph - N/A   Scattered Clouds
4:38 AM 60.8 °F 55.4 °F 82% 30.03 in 10.0 mi Calm Calm - N/A   Overcast
4:53 AM 59.0 °F 55.9 °F 90% 30.00 in 10.0 mi Calm Calm - N/A   Overcast
5:53 AM 57.9 °F 54.0 °F 87% 30.01 in 9.0 mi Calm Calm - N/A   Overcast
6:29 AM 55.4 °F 51.8 °F 88% 30.05 in 10.0 mi Calm Calm - N/A   Mostly Cloudy
6:53 AM 55.9 °F 51.1 °F 84% 30.03 in 10.0 mi Calm Calm - N/A   Partly Cloudy
7:53 AM 57.0 °F 50.0 °F 77% 30.06 in 10.0 mi Calm Calm - N/A   Clear
8:53 AM 59.0 °F 51.1 °F 75% 30.06 in 10.0 mi Variable 3.5 mph - N/A   Clear
9:53 AM 60.1 °F 52.0 °F 75% 30.07 in 10.0 mi Calm Calm - N/A   Clear
10:53 AM 64.0 °F 53.1 °F 67% 30.07 in 10.0 mi Calm Calm - N/A   Clear
11:53 AM 66.9 °F 55.0 °F 66% 30.07 in 10.0 mi Calm Calm - N/A   Clear
12:53 PM 70.0 °F 55.9 °F 61% 30.06 in 10.0 mi Variable 3.5 mph - N/A   Clear
1:53 PM 72.0 °F 57.0 °F 59% 30.04 in 10.0 mi East 4.6 mph - N/A   Clear
2:53 PM 73.9 °F 57.0 °F 55% 30.04 in 10.0 mi Calm Calm - N/A   Clear
3:53 PM 75.0 °F 57.0 °F 53% 30.02 in 10.0 mi Calm Calm - N/A   Partly Cloudy
4:53 PM 75.0 °F 57.0 °F 53% 30.01 in 10.0 mi Variable 4.6 mph - N/A   Mostly Cloudy
5:53 PM 75.0 °F 57.9 °F 55% 30.00 in 10.0 mi Calm Calm - N/A   Partly Cloudy
6:53 PM 73.0 °F 57.9 °F 59% 30.01 in 10.0 mi Calm Calm - N/A   Clear
7:53 PM 70.0 °F 55.9 °F 61% 30.03 in 10.0 mi Variable 3.5 mph - N/A   Clear
8:53 PM 64.9 °F 55.0 °F 70% 30.04 in 10.0 mi Calm Calm - N/A   Clear
9:53 PM 63.0 °F 52.0 °F 67% 30.06 in 10.0 mi Calm Calm - N/A   Clear
10:53 PM 62.1 °F 48.9 °F 62% 30.06 in 10.0 mi Calm Calm - N/A   Clear
11:53 PM 61.0 °F 46.9 °F 60% 30.06 in 10.0 mi Calm Calm - N/A   Clear